owner,sensor,date,latitude,longitude,air_pressure(mBar),qcFlag 
COMPS,ioos:station:USF.COMPS:ANM:1,2011-02-01T00:00:00Z,27.5400,-82.7400,1019.2,1111122 
COMPS,ioos:station:USF.COMPS:ANM:1,2011-02-01T01:00:00Z,27.5400,-82.7400,1019.4,1111122 
COMPS,ioos:station:USF.COMPS:ANM:1,2011-02-01T01:06:00Z,27.5400,-82.7400,1019.3,1111122 
COMPS,ioos:station:USF.COMPS:ANM:1,2011-02-01T01:12:00Z,27.5400,-82.7400,1019.32,1111122 
COMPS,ioos:station:USF.COMPS:ANM:1,2011-02-01T01:18:00Z,27.5400,-82.7400,1019.38,1111122 
COMPS,ioos:station:USF.COMPS:ANM:1,2011-02-01T01:24:00Z,27.5400,-82.7400,1019.5,1111122 
COMPS,ioos:station:USF.COMPS:ANM:1,2011-02-01T01:30:00Z,27.5400,-82.7400,1019.5,1111122 
COMPS,ioos:station:USF.COMPS:ANM:1,2011-02-01T01:36:00Z,27.5400,-82.7400,1019.52,1111122 
COMPS,ioos:station:USF.COMPS:ANM:1,2011-02-01T01:42:00Z,27.5400,-82.7400,1019.7,1111122 
COMPS,ioos:station:USF.COMPS:ANM:1,2011-02-01T01:48:00Z,27.5400,-82.7400,1019.76,1111122 
COMPS,ioos:station:USF.COMPS:ANM:1,2011-02-01T01:54:00Z,27.5400,-82.7400,1019.77,1111122 
COMPS,ioos:station:USF.COMPS:ANM:1,2011-02-01T03:00:00Z,27.5400,-82.7400,1019.8,1111122 
COMPS,ioos:station:USF.COMPS:ANM:1,2011-02-01T05:00:00Z,27.5400,-82.7400,1019.5,1111122 
COMPS,ioos:station:USF.COMPS:ANM:1,2011-02-01T05:06:00Z,27.5400,-82.7400,1019.42,1111122 
COMPS,ioos:station:USF.COMPS:ANM:1,2011-02-01T05:12:00Z,27.5400,-82.7400,1019.33,1111122 
COMPS,ioos:station:USF.COMPS:ANM:1,2011-02-01T05:18:00Z,27.5400,-82.7400,1019.29,1111122 
COMPS,ioos:station:USF.COMPS:ANM:1,2011-02-01T05:24:00Z,27.5400,-82.7400,1019.18,1111122 
COMPS,ioos:station:USF.COMPS:ANM:1,2011-02-01T05:30:00Z,27.5400,-82.7400,1019.1,1111122 
COMPS,ioos:station:USF.COMPS:ANM:1,2011-02-01T05:36:00Z,27.5400,-82.7400,1019.08,1111122 
COMPS,ioos:station:USF.COMPS:ANM:1,2011-02-01T05:42:00Z,27.5400,-82.7400,1019.1,1111122 
COMPS,ioos:station:USF.COMPS:ANM:1,2011-02-01T05:48:00Z,27.5400,-82.7400,1019.0,1111122 
COMPS,ioos:station:USF.COMPS:ANM:1,2011-02-01T05:54:00Z,27.5400,-82.7400,1018.9,1111122 
COMPS,ioos:station:USF.COMPS:ANM:1,2011-02-01T06:00:00Z,27.5400,-82.7400,1018.9,1111122 
COMPS,ioos:station:USF.COMPS:ANM:1,2011-02-01T07:00:00Z,27.5400,-82.7400,1018.5,1111122 
COMPS,ioos:station:USF.COMPS:ANM:1,2011-02-01T07:06:00Z,27.5400,-82.7400,1018.38,1111122 
COMPS,ioos:station:USF.COMPS:ANM:1,2011-02-01T07:12:00Z,27.5400,-82.7400,1018.33,1111122 
COMPS,ioos:station:USF.COMPS:ANM:1,2011-02-01T07:18:00Z,27.5400,-82.7400,1018.12,1111122 
COMPS,ioos:station:USF.COMPS:ANM:1,2011-02-01T07:24:00Z,27.5400,-82.7400,1018.13,1111122 
COMPS,ioos:station:USF.COMPS:ANM:1,2011-02-01T07:30:00Z,27.5400,-82.7400,1018.13,1111122 
COMPS,ioos:station:USF.COMPS:ANM:1,2011-02-01T07:36:00Z,27.5400,-82.7400,1018.06,1111122 
COMPS,ioos:station:USF.COMPS:ANM:1,2011-02-01T07:42:00Z,27.5400,-82.7400,1017.94,1111122 
COMPS,ioos:station:USF.COMPS:ANM:1,2011-02-01T07:48:00Z,27.5400,-82.7400,1017.86,1111122 
COMPS,ioos:station:USF.COMPS:ANM:1,2011-02-01T07:54:00Z,27.5400,-82.7400,1017.81,1111122 
COMPS,ioos:station:USF.COMPS:ANM:1,2011-02-01T08:00:00Z,27.5400,-82.7400,1017.8,1111122 
COMPS,ioos:station:USF.COMPS:ANM:1,2011-02-01T09:00:00Z,27.5400,-82.7400,1017.4,1111122 
COMPS,ioos:station:USF.COMPS:ANM:1,2011-02-01T09:06:00Z,27.5400,-82.7400,1017.53,1111122 
COMPS,ioos:station:USF.COMPS:ANM:1,2011-02-01T09:12:00Z,27.5400,-82.7400,1017.5,1111122 
COMPS,ioos:station:USF.COMPS:ANM:1,2011-02-01T09:18:00Z,27.5400,-82.7400,1017.56,1111122 
COMPS,ioos:station:USF.COMPS:ANM:1,2011-02-01T09:24:00Z,27.5400,-82.7400,1017.64,1111122 
COMPS,ioos:station:USF.COMPS:ANM:1,2011-02-01T09:30:00Z,27.5400,-82.7400,1017.68,1111122 
COMPS,ioos:station:USF.COMPS:ANM:1,2011-02-01T09:36:00Z,27.5400,-82.7400,1017.68,1111122 
COMPS,ioos:station:USF.COMPS:ANM:1,2011-02-01T09:42:00Z,27.5400,-82.7400,1017.66,1111122 
COMPS,ioos:station:USF.COMPS:ANM:1,2011-02-01T09:48:00Z,27.5400,-82.7400,1017.65,1111122 
COMPS,ioos:station:USF.COMPS:ANM:1,2011-02-01T09:54:00Z,27.5400,-82.7400,1017.65,1111122 
COMPS,ioos:station:USF.COMPS:ANM:1,2011-02-01T10:00:00Z,27.5400,-82.7400,1017.7,1111122 
COMPS,ioos:station:USF.COMPS:ANM:1,2011-02-01T11:00:00Z,27.5400,-82.7400,1017.9,1111122 
COMPS,ioos:station:USF.COMPS:ANM:1,2011-02-01T11:06:00Z,27.5400,-82.7400,1017.85,1111122 
COMPS,ioos:station:USF.COMPS:ANM:1,2011-02-01T11:12:00Z,27.5400,-82.7400,1017.89,1111122 
COMPS,ioos:station:USF.COMPS:ANM:1,2011-02-01T11:18:00Z,27.5400,-82.7400,1017.89,1111122 
COMPS,ioos:station:USF.COMPS:ANM:1,2011-02-01T11:24:00Z,27.5400,-82.7400,1017.89,1111122 
COMPS,ioos:station:USF.COMPS:ANM:1,2011-02-01T11:30:00Z,27.5400,-82.7400,1017.96,1111122 
COMPS,ioos:station:USF.COMPS:ANM:1,2011-02-01T11:36:00Z,27.5400,-82.7400,1018.02,1111122 
COMPS,ioos:station:USF.COMPS:ANM:1,2011-02-01T11:42:00Z,27.5400,-82.7400,1018.14,1111122 
COMPS,ioos:station:USF.COMPS:ANM:1,2011-02-01T11:48:00Z,27.5400,-82.7400,1018.2,1111122 
COMPS,ioos:station:USF.COMPS:ANM:1,2011-02-01T11:54:00Z,27.5400,-82.7400,1018.16,1111122 
COMPS,ioos:station:USF.COMPS:ANM:1,2011-02-01T12:00:00Z,27.5400,-82.7400,1018.2,1111122 
COMPS,ioos:station:USF.COMPS:ANM:1,2011-02-01T13:00:00Z,27.5400,-82.7400,1018.7,1111122 
COMPS,ioos:station:USF.COMPS:ANM:1,2011-02-01T14:00:00Z,27.5400,-82.7400,1018.8,1111122 
COMPS,ioos:station:USF.COMPS:ANM:1,2011-02-01T15:00:00Z,27.5400,-82.7400,1019.2,1111122 
COMPS,ioos:station:USF.COMPS:ANM:1,2011-02-01T15:06:00Z,27.5400,-82.7400,1019.21,1111122 
COMPS,ioos:station:USF.COMPS:ANM:1,2011-02-01T15:12:00Z,27.5400,-82.7400,1019.24,1111122 
COMPS,ioos:station:USF.COMPS:ANM:1,2011-02-01T15:18:00Z,27.5400,-82.7400,1019.24,1111122 
COMPS,ioos:station:USF.COMPS:ANM:1,2011-02-01T15:24:00Z,27.5400,-82.7400,1019.24,1111122 
COMPS,ioos:station:USF.COMPS:ANM:1,2011-02-01T15:30:00Z,27.5400,-82.7400,1019.32,1111122 
COMPS,ioos:station:USF.COMPS:ANM:1,2011-02-01T15:36:00Z,27.5400,-82.7400,1019.28,1111122 
COMPS,ioos:station:USF.COMPS:ANM:1,2011-02-01T15:42:00Z,27.5400,-82.7400,1019.34,1111122 
COMPS,ioos:station:USF.COMPS:ANM:1,2011-02-01T15:48:00Z,27.5400,-82.7400,1019.36,1111122 
COMPS,ioos:station:USF.COMPS:ANM:1,2011-02-01T15:54:00Z,27.5400,-82.7400,1019.26,1111122 
COMPS,ioos:station:USF.COMPS:ANM:1,2011-02-01T16:00:00Z,27.5400,-82.7400,1019.3,1111122 
COMPS,ioos:station:USF.COMPS:ANM:1,2011-02-01T16:06:00Z,27.5400,-82.7400,1019.14,1111122 
COMPS,ioos:station:USF.COMPS:ANM:1,2011-02-01T16:12:00Z,27.5400,-82.7400,1019.12,1111122 
COMPS,ioos:station:USF.COMPS:ANM:1,2011-02-01T16:18:00Z,27.5400,-82.7400,1018.96,1111122 
COMPS,ioos:station:USF.COMPS:ANM:1,2011-02-01T16:24:00Z,27.5400,-82.7400,1018.78,1111122 
COMPS,ioos:station:USF.COMPS:ANM:1,2011-02-01T16:30:00Z,27.5400,-82.7400,1018.72,1111122 
COMPS,ioos:station:USF.COMPS:ANM:1,2011-02-01T16:36:00Z,27.5400,-82.7400,1018.6,1111122 
COMPS,ioos:station:USF.COMPS:ANM:1,2011-02-01T16:42:00Z,27.5400,-82.7400,1018.45,1111122 
COMPS,ioos:station:USF.COMPS:ANM:1,2011-02-01T16:48:00Z,27.5400,-82.7400,1018.32,1111122 
COMPS,ioos:station:USF.COMPS:ANM:1,2011-02-01T16:54:00Z,27.5400,-82.7400,1018.25,1111122 
COMPS,ioos:station:USF.COMPS:ANM:1,2011-02-01T17:00:00Z,27.5400,-82.7400,1018.3,1111122 
COMPS,ioos:station:USF.COMPS:ANM:1,2011-02-01T18:00:00Z,27.5400,-82.7400,1017.4,1111122 
COMPS,ioos:station:USF.COMPS:ANM:1,2011-02-01T18:06:00Z,27.5400,-82.7400,1017.17,1111122 
COMPS,ioos:station:USF.COMPS:ANM:1,2011-02-01T18:12:00Z,27.5400,-82.7400,1017.09,1111122 
COMPS,ioos:station:USF.COMPS:ANM:1,2011-02-01T18:18:00Z,27.5400,-82.7400,1017.0,1111122 
COMPS,ioos:station:USF.COMPS:ANM:1,2011-02-01T18:24:00Z,27.5400,-82.7400,1016.88,1111122 
COMPS,ioos:station:USF.COMPS:ANM:1,2011-02-01T18:30:00Z,27.5400,-82.7400,1016.78,1111122 
COMPS,ioos:station:USF.COMPS:ANM:1,2011-02-01T18:36:00Z,27.5400,-82.7400,1016.69,1111122 
COMPS,ioos:station:USF.COMPS:ANM:1,2011-02-01T18:42:00Z,27.5400,-82.7400,1016.58,1111122 
COMPS,ioos:station:USF.COMPS:ANM:1,2011-02-01T18:48:00Z,27.5400,-82.7400,1016.44,1111122 
COMPS,ioos:station:USF.COMPS:ANM:1,2011-02-01T18:54:00Z,27.5400,-82.7400,1016.34,1111122 
COMPS,ioos:station:USF.COMPS:ANM:1,2011-02-01T19:00:00Z,27.5400,-82.7400,1016.3,1111122 
COMPS,ioos:station:USF.COMPS:ANM:1,2011-02-01T20:00:00Z,27.5400,-82.7400,1015.9,1111122 
COMPS,ioos:station:USF.COMPS:ANM:1,2011-02-01T20:06:00Z,27.5400,-82.7400,1015.85,1111122 
COMPS,ioos:station:USF.COMPS:ANM:1,2011-02-01T20:12:00Z,27.5400,-82.7400,1015.86,1111122 
COMPS,ioos:station:USF.COMPS:ANM:1,2011-02-01T20:18:00Z,27.5400,-82.7400,1015.86,1111122 
COMPS,ioos:station:USF.COMPS:ANM:1,2011-02-01T20:24:00Z,27.5400,-82.7400,1015.84,1111122 
COMPS,ioos:station:USF.COMPS:ANM:1,2011-02-01T20:30:00Z,27.5400,-82.7400,1015.85,1111122 
COMPS,ioos:station:USF.COMPS:ANM:1,2011-02-01T20:36:00Z,27.5400,-82.7400,1015.94,1111122 
COMPS,ioos:station:USF.COMPS:ANM:1,2011-02-01T20:42:00Z,27.5400,-82.7400,1016.08,1111122 
COMPS,ioos:station:USF.COMPS:ANM:1,2011-02-01T20:48:00Z,27.5400,-82.7400,1016.2,1111122 
COMPS,ioos:station:USF.COMPS:ANM:1,2011-02-01T20:54:00Z,27.5400,-82.7400,1016.28,1111122 
COMPS,ioos:station:USF.COMPS:ANM:1,2011-02-01T21:00:00Z,27.5400,-82.7400,1016.3,1111122 
COMPS,ioos:station:USF.COMPS:ANM:1,2011-02-01T22:00:00Z,27.5400,-82.7400,1016.5,1111122 
COMPS,ioos:station:USF.COMPS:ANM:1,2011-02-01T22:06:00Z,27.5400,-82.7400,1016.53,1111122 
COMPS,ioos:station:USF.COMPS:ANM:1,2011-02-01T22:12:00Z,27.5400,-82.7400,1016.62,1111122 
COMPS,ioos:station:USF.COMPS:ANM:1,2011-02-01T22:18:00Z,27.5400,-82.7400,1016.66,1111122 
COMPS,ioos:station:USF.COMPS:ANM:1,2011-02-01T22:24:00Z,27.5400,-82.7400,1016.66,1111122 
COMPS,ioos:station:USF.COMPS:ANM:1,2011-02-01T22:30:00Z,27.5400,-82.7400,1016.66,1111122 
COMPS,ioos:station:USF.COMPS:ANM:1,2011-02-01T22:36:00Z,27.5400,-82.7400,1016.72,1111122 
COMPS,ioos:station:USF.COMPS:ANM:1,2011-02-01T22:42:00Z,27.5400,-82.7400,1016.77,1111122 
COMPS,ioos:station:USF.COMPS:ANM:1,2011-02-01T22:48:00Z,27.5400,-82.7400,1016.84,1111122 
COMPS,ioos:station:USF.COMPS:ANM:1,2011-02-01T22:54:00Z,27.5400,-82.7400,1016.89,1111122 
COMPS,ioos:station:USF.COMPS:ANM:1,2011-02-01T23:00:00Z,27.5400,-82.7400,1016.9,1111122 
COMPS,ioos:station:USF.COMPS:ANM:1,2011-02-01T23:06:00Z,27.5400,-82.7400,1016.94,1111122 
COMPS,ioos:station:USF.COMPS:ANM:1,2011-02-01T23:12:00Z,27.5400,-82.7400,1016.98,1111122 
COMPS,ioos:station:USF.COMPS:ANM:1,2011-02-01T23:18:00Z,27.5400,-82.7400,1017.06,1111122 
COMPS,ioos:station:USF.COMPS:ANM:1,2011-02-01T23:24:00Z,27.5400,-82.7400,1017.06,1111122 
COMPS,ioos:station:USF.COMPS:ANM:1,2011-02-01T23:30:00Z,27.5400,-82.7400,1017.18,1111122 
COMPS,ioos:station:USF.COMPS:ANM:1,2011-02-01T23:36:00Z,27.5400,-82.7400,1017.2,1111122 
COMPS,ioos:station:USF.COMPS:ANM:1,2011-02-01T23:42:00Z,27.5400,-82.7400,1017.2,1111122 
COMPS,ioos:station:USF.COMPS:ANM:1,2011-02-01T23:48:00Z,27.5400,-82.7400,1017.2,1111122 
COMPS,ioos:station:USF.COMPS:ANM:1,2011-02-01T23:54:00Z,27.5400,-82.7400,1017.14,1111122 
COMPS,ioos:station:USF.COMPS:ANM:1,2011-02-02T00:00:00Z,27.5400,-82.7400,1017.1,1111122 
COMPS,ioos:station:USF.COMPS:ANM:1,2011-02-02T01:00:00Z,27.5400,-82.7400,1017.2,1111122 
COMPS,ioos:station:USF.COMPS:ANM:1,2011-02-02T01:06:00Z,27.5400,-82.7400,1017.14,1111122 
COMPS,ioos:station:USF.COMPS:ANM:1,2011-02-02T01:12:00Z,27.5400,-82.7400,1017.24,1111122 
COMPS,ioos:station:USF.COMPS:ANM:1,2011-02-02T01:18:00Z,27.5400,-82.7400,1017.41,1111122 
COMPS,ioos:station:USF.COMPS:ANM:1,2011-02-02T01:24:00Z,27.5400,-82.7400,1017.65,1111122 
COMPS,ioos:station:USF.COMPS:ANM:1,2011-02-02T01:30:00Z,27.5400,-82.7400,1017.77,1111122 
COMPS,ioos:station:USF.COMPS:ANM:1,2011-02-02T01:36:00Z,27.5400,-82.7400,1017.86,1111122 
COMPS,ioos:station:USF.COMPS:ANM:1,2011-02-02T01:42:00Z,27.5400,-82.7400,1018.0,1111122 
COMPS,ioos:station:USF.COMPS:ANM:1,2011-02-02T01:48:00Z,27.5400,-82.7400,1018.08,1111122 
COMPS,ioos:station:USF.COMPS:ANM:1,2011-02-02T01:54:00Z,27.5400,-82.7400,1018.09,1111122 
COMPS,ioos:station:USF.COMPS:ANM:1,2011-02-02T02:00:00Z,27.5400,-82.7400,1018.1,1111122 
COMPS,ioos:station:USF.COMPS:ANM:1,2011-02-02T03:00:00Z,27.5400,-82.7400,1018.6,1111122 
COMPS,ioos:station:USF.COMPS:ANM:1,2011-02-02T03:06:00Z,27.5400,-82.7400,1018.56,1111122 
COMPS,ioos:station:USF.COMPS:ANM:1,2011-02-02T03:12:00Z,27.5400,-82.7400,1018.56,1111122 
COMPS,ioos:station:USF.COMPS:ANM:1,2011-02-02T03:18:00Z,27.5400,-82.7400,1018.57,1111122 
COMPS,ioos:station:USF.COMPS:ANM:1,2011-02-02T03:24:00Z,27.5400,-82.7400,1018.7,1111122 
COMPS,ioos:station:USF.COMPS:ANM:1,2011-02-02T03:30:00Z,27.5400,-82.7400,1018.78,1111122 
COMPS,ioos:station:USF.COMPS:ANM:1,2011-02-02T03:36:00Z,27.5400,-82.7400,1018.82,1111122 
COMPS,ioos:station:USF.COMPS:ANM:1,2011-02-02T03:42:00Z,27.5400,-82.7400,1018.76,1111122 
COMPS,ioos:station:USF.COMPS:ANM:1,2011-02-02T03:48:00Z,27.5400,-82.7400,1018.74,1111122 
COMPS,ioos:station:USF.COMPS:ANM:1,2011-02-02T03:54:00Z,27.5400,-82.7400,1018.73,1111122 
COMPS,ioos:station:USF.COMPS:ANM:1,2011-02-02T04:00:00Z,27.5400,-82.7400,1018.7,1111122 
COMPS,ioos:station:USF.COMPS:ANM:1,2011-02-02T05:00:00Z,27.5400,-82.7400,1018.7,1111122 
COMPS,ioos:station:USF.COMPS:ANM:1,2011-02-02T05:06:00Z,27.5400,-82.7400,1018.7,1111122 
COMPS,ioos:station:USF.COMPS:ANM:1,2011-02-02T05:12:00Z,27.5400,-82.7400,1018.7,1111122 
COMPS,ioos:station:USF.COMPS:ANM:1,2011-02-02T05:18:00Z,27.5400,-82.7400,1018.7,1111122 
COMPS,ioos:station:USF.COMPS:ANM:1,2011-02-02T05:24:00Z,27.5400,-82.7400,1018.69,1111122 
COMPS,ioos:station:USF.COMPS:ANM:1,2011-02-02T05:30:00Z,27.5400,-82.7400,1018.61,1111122 
COMPS,ioos:station:USF.COMPS:ANM:1,2011-02-02T05:36:00Z,27.5400,-82.7400,1018.52,1111122 
COMPS,ioos:station:USF.COMPS:ANM:1,2011-02-02T05:42:00Z,27.5400,-82.7400,1018.33,1111122 
COMPS,ioos:station:USF.COMPS:ANM:1,2011-02-02T05:48:00Z,27.5400,-82.7400,1018.06,1111122 
COMPS,ioos:station:USF.COMPS:ANM:1,2011-02-02T05:54:00Z,27.5400,-82.7400,1017.96,1111122 
COMPS,ioos:station:USF.COMPS:ANM:1,2011-02-02T06:00:00Z,27.5400,-82.7400,1018.0,1111122 
COMPS,ioos:station:USF.COMPS:ANM:1,2011-02-02T07:00:00Z,27.5400,-82.7400,1017.6,1111122 
COMPS,ioos:station:USF.COMPS:ANM:1,2011-02-02T08:00:00Z,27.5400,-82.7400,1017.5,1111122 
COMPS,ioos:station:USF.COMPS:ANM:1,2011-02-02T09:00:00Z,27.5400,-82.7400,1016.5,1111122 
COMPS,ioos:station:USF.COMPS:ANM:1,2011-02-02T09:06:00Z,27.5400,-82.7400,1016.53,1111122 
COMPS,ioos:station:USF.COMPS:ANM:1,2011-02-02T09:12:00Z,27.5400,-82.7400,1016.53,1111122 
COMPS,ioos:station:USF.COMPS:ANM:1,2011-02-02T09:18:00Z,27.5400,-82.7400,1016.58,1111122 
COMPS,ioos:station:USF.COMPS:ANM:1,2011-02-02T09:24:00Z,27.5400,-82.7400,1016.49,1111122 
COMPS,ioos:station:USF.COMPS:ANM:1,2011-02-02T09:30:00Z,27.5400,-82.7400,1016.57,1111122 
COMPS,ioos:station:USF.COMPS:ANM:1,2011-02-02T09:36:00Z,27.5400,-82.7400,1016.74,1111122 
COMPS,ioos:station:USF.COMPS:ANM:1,2011-02-02T09:42:00Z,27.5400,-82.7400,1016.81,1111122 
COMPS,ioos:station:USF.COMPS:ANM:1,2011-02-02T09:48:00Z,27.5400,-82.7400,1016.92,1111122 
COMPS,ioos:station:USF.COMPS:ANM:1,2011-02-02T09:54:00Z,27.5400,-82.7400,1017.05,1111122 
COMPS,ioos:station:USF.COMPS:ANM:1,2011-02-02T10:00:00Z,27.5400,-82.7400,1017.1,1111122 
COMPS,ioos:station:USF.COMPS:ANM:1,2011-02-02T11:00:00Z,27.5400,-82.7400,1017.5,1111122 
COMPS,ioos:station:USF.COMPS:ANM:1,2011-02-02T12:00:00Z,27.5400,-82.7400,1018.1,1111122 
COMPS,ioos:station:USF.COMPS:ANM:1,2011-02-02T12:06:00Z,27.5400,-82.7400,1018.04,1111122 
COMPS,ioos:station:USF.COMPS:ANM:1,2011-02-02T12:12:00Z,27.5400,-82.7400,1018.04,1111122 
COMPS,ioos:station:USF.COMPS:ANM:1,2011-02-02T12:18:00Z,27.5400,-82.7400,1018.14,1111122 
COMPS,ioos:station:USF.COMPS:ANM:1,2011-02-02T12:24:00Z,27.5400,-82.7400,1018.24,1111122 
COMPS,ioos:station:USF.COMPS:ANM:1,2011-02-02T12:30:00Z,27.5400,-82.7400,1018.16,1111122 
COMPS,ioos:station:USF.COMPS:ANM:1,2011-02-02T12:36:00Z,27.5400,-82.7400,1018.28,1111122 
COMPS,ioos:station:USF.COMPS:ANM:1,2011-02-02T12:42:00Z,27.5400,-82.7400,1018.36,1111122 
COMPS,ioos:station:USF.COMPS:ANM:1,2011-02-02T12:48:00Z,27.5400,-82.7400,1018.29,1111122 
COMPS,ioos:station:USF.COMPS:ANM:1,2011-02-02T12:54:00Z,27.5400,-82.7400,1018.34,1111122 
COMPS,ioos:station:USF.COMPS:ANM:1,2011-02-02T13:00:00Z,27.5400,-82.7400,1018.3,1111122 
COMPS,ioos:station:USF.COMPS:ANM:1,2011-02-02T14:00:00Z,27.5400,-82.7400,1018.8,1111122 
COMPS,ioos:station:USF.COMPS:ANM:1,2011-02-02T15:00:00Z,27.5400,-82.7400,1019.3,1111122 
COMPS,ioos:station:USF.COMPS:ANM:1,2011-02-02T16:00:00Z,27.5400,-82.7400,1020.2,1111122 
COMPS,ioos:station:USF.COMPS:ANM:1,2011-02-02T16:06:00Z,27.5400,-82.7400,1020.12,1111122 
COMPS,ioos:station:USF.COMPS:ANM:1,2011-02-02T16:12:00Z,27.5400,-82.7400,1020.0,1111122 
COMPS,ioos:station:USF.COMPS:ANM:1,2011-02-02T16:18:00Z,27.5400,-82.7400,1019.97,1111122 
COMPS,ioos:station:USF.COMPS:ANM:1,2011-02-02T16:24:00Z,27.5400,-82.7400,1020.05,1111122 
COMPS,ioos:station:USF.COMPS:ANM:1,2011-02-02T16:30:00Z,27.5400,-82.7400,1020.1,1111122 
COMPS,ioos:station:USF.COMPS:ANM:1,2011-02-02T16:36:00Z,27.5400,-82.7400,1020.17,1111122 
COMPS,ioos:station:USF.COMPS:ANM:1,2011-02-02T16:42:00Z,27.5400,-82.7400,1020.18,1111122 
COMPS,ioos:station:USF.COMPS:ANM:1,2011-02-02T16:48:00Z,27.5400,-82.7400,1020.1,1111122 
COMPS,ioos:station:USF.COMPS:ANM:1,2011-02-02T16:54:00Z,27.5400,-82.7400,1020.16,1111122 
COMPS,ioos:station:USF.COMPS:ANM:1,2011-02-02T17:00:00Z,27.5400,-82.7400,1020.2,1111122 
COMPS,ioos:station:USF.COMPS:ANM:1,2011-02-02T18:00:00Z,27.5400,-82.7400,1019.5,1111122 
COMPS,ioos:station:USF.COMPS:ANM:1,2011-02-02T19:00:00Z,27.5400,-82.7400,1019.2,1111122 
COMPS,ioos:station:USF.COMPS:ANM:1,2011-02-02T20:00:00Z,27.5400,-82.7400,1018.8,1111122 
COMPS,ioos:station:USF.COMPS:ANM:1,2011-02-02T21:00:00Z,27.5400,-82.7400,1018.7,1111122 
COMPS,ioos:station:USF.COMPS:ANM:1,2011-02-02T21:06:00Z,27.5400,-82.7400,1018.69,1111122 
COMPS,ioos:station:USF.COMPS:ANM:1,2011-02-02T21:12:00Z,27.5400,-82.7400,1018.68,1111122 
COMPS,ioos:station:USF.COMPS:ANM:1,2011-02-02T21:18:00Z,27.5400,-82.7400,1018.68,1111122 
COMPS,ioos:station:USF.COMPS:ANM:1,2011-02-02T21:24:00Z,27.5400,-82.7400,1018.69,1111122 
COMPS,ioos:station:USF.COMPS:ANM:1,2011-02-02T21:30:00Z,27.5400,-82.7400,1018.76,1111122 
COMPS,ioos:station:USF.COMPS:ANM:1,2011-02-02T21:36:00Z,27.5400,-82.7400,1018.94,1111122 
COMPS,ioos:station:USF.COMPS:ANM:1,2011-02-02T21:42:00Z,27.5400,-82.7400,1018.96,1111122 
COMPS,ioos:station:USF.COMPS:ANM:1,2011-02-02T21:48:00Z,27.5400,-82.7400,1018.96,1111122 
COMPS,ioos:station:USF.COMPS:ANM:1,2011-02-02T21:54:00Z,27.5400,-82.7400,1018.96,1111122 
COMPS,ioos:station:USF.COMPS:ANM:1,2011-02-02T22:00:00Z,27.5400,-82.7400,1019.0,1111122 
COMPS,ioos:station:USF.COMPS:ANM:1,2011-02-02T23:00:00Z,27.5400,-82.7400,1019.6,1111122 
COMPS,ioos:station:USF.COMPS:ANM:1,2011-02-03T00:00:00Z,27.5400,-82.7400,1020.1,1111122 
COMPS,ioos:station:USF.COMPS:ANM:1,2011-02-03T01:00:00Z,27.5400,-82.7400,1020.6,1111122 
COMPS,ioos:station:USF.COMPS:ANM:1,2011-02-03T02:00:00Z,27.5400,-82.7400,1020.8,1111122 
COMPS,ioos:station:USF.COMPS:ANM:1,2011-02-03T02:06:00Z,27.5400,-82.7400,1020.86,1111122 
COMPS,ioos:station:USF.COMPS:ANM:1,2011-02-03T02:12:00Z,27.5400,-82.7400,1020.88,1111122 
COMPS,ioos:station:USF.COMPS:ANM:1,2011-02-03T02:18:00Z,27.5400,-82.7400,1020.97,1111122 
COMPS,ioos:station:USF.COMPS:ANM:1,2011-02-03T02:24:00Z,27.5400,-82.7400,1020.88,1111122 
COMPS,ioos:station:USF.COMPS:ANM:1,2011-02-03T02:30:00Z,27.5400,-82.7400,1020.88,1111122 
COMPS,ioos:station:USF.COMPS:ANM:1,2011-02-03T02:36:00Z,27.5400,-82.7400,1020.9,1111122 
COMPS,ioos:station:USF.COMPS:ANM:1,2011-02-03T02:42:00Z,27.5400,-82.7400,1020.98,1111122 
COMPS,ioos:station:USF.COMPS:ANM:1,2011-02-03T02:48:00Z,27.5400,-82.7400,1020.97,1111122 
COMPS,ioos:station:USF.COMPS:ANM:1,2011-02-03T02:54:00Z,27.5400,-82.7400,1021.0,1111122 
COMPS,ioos:station:USF.COMPS:ANM:1,2011-02-03T03:00:00Z,27.5400,-82.7400,1021.0,1111122 
COMPS,ioos:station:USF.COMPS:ANM:1,2011-02-03T04:00:00Z,27.5400,-82.7400,1021.1,1111122 
COMPS,ioos:station:USF.COMPS:ANM:1,2011-02-03T05:00:00Z,27.5400,-82.7400,1020.9,1111122 
COMPS,ioos:station:USF.COMPS:ANM:1,2011-02-03T05:06:00Z,27.5400,-82.7400,1020.97,1111122 
COMPS,ioos:station:USF.COMPS:ANM:1,2011-02-03T05:12:00Z,27.5400,-82.7400,1020.96,1111122 
COMPS,ioos:station:USF.COMPS:ANM:1,2011-02-03T05:18:00Z,27.5400,-82.7400,1020.88,1111122 
COMPS,ioos:station:USF.COMPS:ANM:1,2011-02-03T05:24:00Z,27.5400,-82.7400,1020.86,1111122 
COMPS,ioos:station:USF.COMPS:ANM:1,2011-02-03T05:30:00Z,27.5400,-82.7400,1020.97,1111122 
COMPS,ioos:station:USF.COMPS:ANM:1,2011-02-03T05:36:00Z,27.5400,-82.7400,1020.89,1111122 
COMPS,ioos:station:USF.COMPS:ANM:1,2011-02-03T05:42:00Z,27.5400,-82.7400,1020.86,1111122 
COMPS,ioos:station:USF.COMPS:ANM:1,2011-02-03T05:48:00Z,27.5400,-82.7400,1020.85,1111122 
COMPS,ioos:station:USF.COMPS:ANM:1,2011-02-03T05:54:00Z,27.5400,-82.7400,1020.76,1111122 
COMPS,ioos:station:USF.COMPS:ANM:1,2011-02-03T06:00:00Z,27.5400,-82.7400,1020.8,1111122 
COMPS,ioos:station:USF.COMPS:ANM:1,2011-02-03T06:06:00Z,27.5400,-82.7400,1020.58,1111122 
COMPS,ioos:station:USF.COMPS:ANM:1,2011-02-03T06:12:00Z,27.5400,-82.7400,1020.58,1111122 
COMPS,ioos:station:USF.COMPS:ANM:1,2011-02-03T06:18:00Z,27.5400,-82.7400,1020.6,1111122 
COMPS,ioos:station:USF.COMPS:ANM:1,2011-02-03T06:24:00Z,27.5400,-82.7400,1020.61,1111122 
COMPS,ioos:station:USF.COMPS:ANM:1,2011-02-03T06:30:00Z,27.5400,-82.7400,1020.58,1111122 
COMPS,ioos:station:USF.COMPS:ANM:1,2011-02-03T06:36:00Z,27.5400,-82.7400,1020.49,1111122 
COMPS,ioos:station:USF.COMPS:ANM:1,2011-02-03T06:42:00Z,27.5400,-82.7400,1020.45,1111122 
COMPS,ioos:station:USF.COMPS:ANM:1,2011-02-03T06:48:00Z,27.5400,-82.7400,1020.45,1111122 
COMPS,ioos:station:USF.COMPS:ANM:1,2011-02-03T06:54:00Z,27.5400,-82.7400,1020.53,1111122 
COMPS,ioos:station:USF.COMPS:ANM:1,2011-02-03T07:00:00Z,27.5400,-82.7400,1020.5,1111122 
COMPS,ioos:station:USF.COMPS:ANM:1,2011-02-03T08:00:00Z,27.5400,-82.7400,1020.3,1111122 
COMPS,ioos:station:USF.COMPS:ANM:1,2011-02-03T09:00:00Z,27.5400,-82.7400,1020.4,1111122 
COMPS,ioos:station:USF.COMPS:ANM:1,2011-02-03T10:00:00Z,27.5400,-82.7400,1020.4,1111122 
COMPS,ioos:station:USF.COMPS:ANM:1,2011-02-03T10:06:00Z,27.5400,-82.7400,1020.32,1111122 
COMPS,ioos:station:USF.COMPS:ANM:1,2011-02-03T10:12:00Z,27.5400,-82.7400,1020.4,1111122 
COMPS,ioos:station:USF.COMPS:ANM:1,2011-02-03T10:18:00Z,27.5400,-82.7400,1020.61,1111122 
COMPS,ioos:station:USF.COMPS:ANM:1,2011-02-03T10:24:00Z,27.5400,-82.7400,1020.58,1111122 
COMPS,ioos:station:USF.COMPS:ANM:1,2011-02-03T10:30:00Z,27.5400,-82.7400,1020.58,1111122 
COMPS,ioos:station:USF.COMPS:ANM:1,2011-02-03T10:36:00Z,27.5400,-82.7400,1020.58,1111122 
COMPS,ioos:station:USF.COMPS:ANM:1,2011-02-03T10:42:00Z,27.5400,-82.7400,1020.58,1111122 
COMPS,ioos:station:USF.COMPS:ANM:1,2011-02-03T10:48:00Z,27.5400,-82.7400,1020.68,1111122 
COMPS,ioos:station:USF.COMPS:ANM:1,2011-02-03T10:54:00Z,27.5400,-82.7400,1020.81,1111122 
COMPS,ioos:station:USF.COMPS:ANM:1,2011-02-03T11:00:00Z,27.5400,-82.7400,1020.8,1111122 
COMPS,ioos:station:USF.COMPS:ANM:1,2011-02-03T11:06:00Z,27.5400,-82.7400,1021.17,1111122 
COMPS,ioos:station:USF.COMPS:ANM:1,2011-02-03T11:12:00Z,27.5400,-82.7400,1021.09,1111122 
COMPS,ioos:station:USF.COMPS:ANM:1,2011-02-03T11:18:00Z,27.5400,-82.7400,1021.06,1111122 
COMPS,ioos:station:USF.COMPS:ANM:1,2011-02-03T11:24:00Z,27.5400,-82.7400,1021.13,1111122 
COMPS,ioos:station:USF.COMPS:ANM:1,2011-02-03T11:30:00Z,27.5400,-82.7400,1021.09,1111122 
COMPS,ioos:station:USF.COMPS:ANM:1,2011-02-03T11:36:00Z,27.5400,-82.7400,1021.37,1111122 
COMPS,ioos:station:USF.COMPS:ANM:1,2011-02-03T11:42:00Z,27.5400,-82.7400,1021.41,1111122 
COMPS,ioos:station:USF.COMPS:ANM:1,2011-02-03T11:48:00Z,27.5400,-82.7400,1021.58,1111122 
COMPS,ioos:station:USF.COMPS:ANM:1,2011-02-03T11:54:00Z,27.5400,-82.7400,1021.66,1111122 
COMPS,ioos:station:USF.COMPS:ANM:1,2011-02-03T12:00:00Z,27.5400,-82.7400,1021.7,1111122 